Tracking 19903 objects as of 16-Oct-2019
HD Live streaming from Space Station
objects crossing your sky now

FENGYUN 1C DEB

Track FENGYUN 1C DEB now!
10-day predictions


NORAD ID: 33716
Int'l Code: 1999-025DHD
Perigee: 726.8 km
Apogee: 865.8 km
Inclination: 99.0 °
Period: 100.6 minutes
Semi major axis: 7167 km
RCS: 0.0093 m2 (small)
Launch date: May 10, 1999
Source: People's Republic of China (PRC)
Launch site: Taiyaun Space Center, China (TSC)

Note: This is SATELLITE DEBRIS
aabbcc
Your satellite tracking list
Your tracking list is empty




NASA's NSSDC Master Catalog

Two Line Element Set (TLE):
1 33716U 99025DHD 19288.74818668  .00000019  00000-0  23908-4 0  9997
2 33716  99.0489 117.0029 0096987  76.6677 284.5296 14.30769106627478
Source of the keplerian elements: AFSPC